Location: Krakow
(50.0830°N, 19.9170°E)
Time: 20:37:23
(UTC+01:00)

Altair - Pass Details

Date: 08 December 2023
Orbit: 1501 x 1682 km, 47.2° (Epoch: 03 March)

Event Time Altitude Azimuth Distance (km) Brightness Sun altitude
Rises 04:51:18 0° 178° (S) 4,866 10.2 -23.6°
Reaches altitude 10° 04:56:15 10° 158° (SSE) 3,851 10.0 -22.8°
Maximum altitude 05:01:15 15° 126° (SE) 3,405 10.1 -22.0°
Drops below altitude 10° 05:06:11 10° 95° (E) 3,785 10.7 -21.2°
Sets 05:10:55 0° 75° (ENE) 4,737 11.2 -20.5°
